Location: Carabito
(9.8355°N, 67.9249°W)
Time: 20:50:22
(UTC+00:00)

Cosmos 2360 Rocket - Pass Details

Date: 23 May 2024
Orbit: 832 x 846 km, 71.0° (Epoch: 25 June)

Event Time Altitude Azimuth Distance (km) Brightness Sun altitude
Rises 07:13:37 0° 4° (N) 3,393 5.8 -39.2°
Reaches altitude 10° 07:16:27 10° 17° (NNE) 2,458 5.1 -38.7°
Maximum altitude 07:21:04 26° 72° (ENE) 1,606 4.1 -37.7°
Enters shadow 07:23:04 21° 103° (ESE) 1,795 4.2 -37.4°
